Location: Dreilärchen
(47.9312°N, 8.6113°E)
Time: 02:00:24
(UTC+00:00)

COSMOS 2441 - Pass Details

Date: 26 May 2022
Orbit: 707 x 732 km, 98.1° (Epoch: 26 June)

Event Time Altitude Azimuth Distance (km) Brightness Sun altitude
Rises 02:10:38 0° 14° (NNE) 3,155 9.0 -11.4°
Reaches altitude 10° 02:12:56 10° 15° (NNE) 2,225 8.0 -11.1°
Maximum altitude 02:17:50 83° 103° (ESE) 732 4.4 -10.6°
Drops below altitude 10° 02:22:39 10° 192° (SSW) 2,192 6.3 -10.1°
Enters shadow 02:22:50 - 193° (SSW) 2,263 6.4 -10.0°
